Location: Newark
(21.1200°N, 73.4000°E)
Time: 00:56:04
(UTC+00:00)

Transit 2A Rocket - Visible Passes

Search period start: 18 January 2020 00:00
Search period end: 28 January 2020 00:00
Orbit: 593 x 910 km, 66.7° (Epoch: 17 January)

Date Brightness Start Highest point End Pass type
(mag) Time Alt. Az. Time Alt. Az. Time Alt. Az.
18 Jan 6.7 00:35:44 10° S 00:39:42 30° ESE 00:43:30 10° NE visible
18 Jan 7.8 23:55:02 10° SE 23:57:17 14° ESE 23:59:30 10° ENE visible
20 Jan 4.4 00:52:31 10° SSW 00:56:59 67° WNW 01:01:16 10° NNE visible
21 Jan 5.3 00:10:08 10° S 00:14:31 51° ESE 00:18:43 10° NE visible
21 Jan 6.9 23:28:33 10° SSE 23:32:05 23° ESE 23:35:30 10° ENE visible
22 Jan 5.9 01:11:24 10° WSW 01:14:26 18° WNW 01:17:24 10° NNW visible
23 Jan 4.9 00:30:31 30° WSW 00:31:51 38° WNW 00:35:53 10° N visible
23 Jan 6.4 23:52:17 20° NNE 23:52:17 20° NNE 23:53:39 10° NNE visible
